Knoxville, TN

2:28 AM EDT on March 23, 2017 (GMT -0400)
McGhee Tyson

Weather History for KTYS - October, 2012

Change the Weather History Date:

Tuesday, October 2, 2012

  Actual Average Record
Temperature  
Mean Temperature 70 °F 65 °F  
Max Temperature 76 °F 76 °F 93 °F (1884)
Min Temperature 63 °F 54 °F 36 °F (1946)
Degree Days  
Heating Degree Days 0 3  
Month to date heating degree days 0 6  
Since 1 July heating degree days 15 29  
Cooling Degree Days 5 3  
Month to date cooling degree days 7 6  
Year to date cooling degree days 1716 1493  
Growing Degree Days 20 (Base 50)    
Moisture  
Dew Point 63 °F    
Average Humidity 74    
Maximum Humidity 93    
Minimum Humidity 54    
Precipitation  
Precipitation 0.02 in 0.08 in 0.69 in (2015)
Month to date precipitation 0.64 0.17  
Year to date precipitation 44.26 37.01  
Snow  
Snow 0.00 in 0.00 in - ()
Month to date snowfall 0.0 0.0  
Since 1 July snowfall 0.0 0.0  
Since 1 September snowfall 0.0 0.0  
Snow Depth 0.00 in    
Sea Level Pressure  
Sea Level Pressure 29.76 in    
Wind  
Wind Speed 10 mph (WSW)    
Max Wind Speed 23 mph    
Max Gust Speed 30 mph    
Visibility 9 miles    
Events Rain    
T = Trace of Precipitation, MM = Missing Value Source: NWS Daily Summary

Daily Weather History Graph

Daily Weather History Graph

Search for Another Location

Airport or City:

Trip Planner

Search our weather history database for the weather conditions in past years. The results will help you decide how hot, cold, wet, or windy it might be!

Date:

Astronomy

Oct. 02, 2012 Rise Set
Actual Time 7:32 AM EDT 7:17 PM EDT
Civil Twilight 7:06 AM EDT 7:43 PM EDT
Nautical Twilight 6:36 AM EDT 8:12 PM EDT
Astronomical Twilight 6:07 AM EDT 8:42 PM EDT
Moon 8:36 PM EDT (10/2) 9:51 AM EDT (10/2)
Length of Visible Light 12h 36m
Length of Day
11h 45m
Waning Gibbous, 94% of the Moon is Illuminated
Oct 2
Waning Gibbous
Oct 8
Last Quarter
Oct 15
New
Oct 21
First Quarter
Oct 29
Full

Hourly Weather History & Observations

Time (EDT) Temp. Dew Point Humidity Pressure Visibility Wind Dir Wind Speed Gust Speed Precip Events Conditions
12:53 AM 66.0 °F 64.0 °F 93% 29.65 in 8.0 mi ENE 5.8 mph - 0.03 in Rain Rain
1:15 AM 66.2 °F 64.4 °F 94% 29.67 in 10.0 mi East 5.8 mph - 0.00 in   Overcast
1:53 AM 66.0 °F 64.9 °F 96% 29.65 in 10.0 mi ENE 4.6 mph - 0.00 in   Overcast
2:53 AM 66.0 °F 64.9 °F 96% 29.64 in 10.0 mi NNE 4.6 mph - 0.00 in   Overcast
3:53 AM 66.9 °F 64.9 °F 93% 29.64 in 10.0 mi NE 4.6 mph - 0.00 in   Overcast
4:28 AM 66.2 °F 64.4 °F 94% 29.68 in 10.0 mi Calm Calm - N/A   Overcast
4:53 AM 66.9 °F 64.9 °F 93% 29.65 in 10.0 mi Calm Calm - N/A   Overcast
5:25 AM 66.2 °F 64.4 °F 94% 29.69 in 10.0 mi North 4.6 mph - 0.00 in Rain Light Rain
5:53 AM 66.0 °F 64.9 °F 96% 29.66 in 8.0 mi NNE 6.9 mph - 0.01 in Rain Light Rain
6:28 AM 66.2 °F 64.4 °F 94% 29.69 in 10.0 mi NE 5.8 mph - N/A   Overcast
6:53 AM 66.0 °F 64.9 °F 96% 29.67 in 4.0 mi NE 5.8 mph - 0.01 in Rain Light Rain
7:53 AM 64.9 °F 64.0 °F 97% 29.69 in 6.0 mi ENE 3.5 mph - 0.00 in   Scattered Clouds
8:53 AM 66.9 °F 64.9 °F 93% 29.71 in 10.0 mi Calm Calm - N/A   Scattered Clouds
9:06 AM 66.2 °F 64.4 °F 94% 29.73 in 7.0 mi Variable 3.5 mph - N/A   Mostly Cloudy
9:53 AM 70.0 °F 66.0 °F 87% 29.71 in 7.0 mi Calm Calm - N/A   Partly Cloudy
10:25 AM 71.6 °F 66.2 °F 83% 29.75 in 10.0 mi West 6.9 mph - N/A   Mostly Cloudy
10:53 AM 72.0 °F 66.0 °F 81% 29.74 in 10.0 mi SW 9.2 mph - N/A   Overcast
11:06 AM 71.6 °F 64.4 °F 78% 29.77 in 10.0 mi SW 18.4 mph 23.0 mph N/A   Overcast
11:37 AM 73.4 °F 60.8 °F 65% 29.77 in 10.0 mi SW 21.9 mph - N/A   Mostly Cloudy
11:53 AM 75.0 °F 60.1 °F 60% 29.75 in 10.0 mi SW 20.7 mph 27.6 mph N/A   Mostly Cloudy
12:53 PM 75.9 °F 57.9 °F 54% 29.75 in 10.0 mi SW 18.4 mph - N/A   Scattered Clouds
1:53 PM 75.0 °F 59.0 °F 57% 29.75 in 10.0 mi WSW 18.4 mph 27.6 mph N/A   Scattered Clouds
2:53 PM 73.0 °F 60.1 °F 64% 29.77 in 10.0 mi WSW 17.3 mph - N/A   Scattered Clouds
3:53 PM 73.0 °F 60.1 °F 64% 29.77 in 10.0 mi WSW 16.1 mph 24.2 mph N/A   Scattered Clouds
4:53 PM 73.0 °F 61.0 °F 66% 29.79 in 10.0 mi SW 15.0 mph - N/A   Mostly Cloudy
5:53 PM 71.1 °F 61.0 °F 70% 29.82 in 10.0 mi SW 12.7 mph - N/A   Mostly Cloudy
6:53 PM 70.0 °F 60.1 °F 71% 29.84 in 10.0 mi WSW 11.5 mph - N/A   Overcast
7:53 PM 68.0 °F 59.0 °F 73% 29.87 in 10.0 mi WSW 10.4 mph - N/A   Overcast
8:53 PM 68.0 °F 59.0 °F 73% 29.89 in 10.0 mi WSW 11.5 mph - N/A   Overcast
9:53 PM 66.0 °F 60.1 °F 81% 29.92 in 10.0 mi WSW 12.7 mph - N/A   Overcast
10:53 PM 64.9 °F 60.1 °F 84% 29.94 in 10.0 mi WSW 10.4 mph - N/A   Overcast
11:39 PM 64.4 °F 60.8 °F 88% 29.97 in 10.0 mi WSW 10.4 mph - N/A   Overcast
11:53 PM 64.9 °F 60.1 °F 84% 29.95 in 10.0 mi WSW 8.1 mph - N/A   Overcast